{"data":{"norad_id":57189,"intl_designator":"2023-091Z","name":"VIZARD-METEO (RS38S)","alt_names":[],"object_type":"PAYLOAD","status":"ACTIVE","operator":null,"country":"CIS","launch_date":"2023-06-27","launch_site_code":"VOSTO","launch_vehicle":null,"mission":null,"orbit_class":"UNKNOWN","rcs_meters":null,"size_class":null,"mass_kg":null,"dimensions":null,"purposes":["comms"],"wikipedia_slug":null,"has_3d_model":false,"image_url":null,"decayed_at":null,"tle_current":{"epoch":"2026-09-19T21:55:37.682112Z","epoch_age_seconds":65160,"freshness":"FRESH","line1":"1 57189U 23091Z   26262.91363058  .00012523  00000+0  32863-3 0  9995","line2":"2 57189  97.5001 334.4410 0008020  93.6408 266.5754 15.38756101179248","mean_motion":15.38756101,"eccentricity":0.000802,"inclination_deg":97.5001,"raan_deg":334.441,"arg_perigee_deg":93.6408,"mean_anomaly_deg":266.5754,"bstar":0.00032863,"rev_number":17924,"period_min":93.582082245794,"perigee_km":444.31054886011,"apogee_km":455.26253822395,"semimajor_km":6827.923543542,"source":"CELESTRAK","updated_at":"2026-09-20T09:00:45.238479Z"}}}